Wind_Speed
25 25 25 24 24 22 21 20 19 18 17 17 16 16 16 15 15 14 14 15 15 15 15 15 16 17 17 18 19 20 21 23 24 25 26 27 28 29 29 29 29 28 28 27 27 27 26 25 26 26 28 27 26 26 26 25 24 22 22 24 26 27 26 26 28 30 27 26 27 27 27 27 27 27 29 30 30 29 27 27 29 32 33 35 40
26 26 26 25 25 23 22 22 20 19 19 18 17 17 17 16 15 15 15 15 15 15 15 15 16 17 18 19 20 21 23 24 26 27 28 29 30 30 30 30 29 29 29 28 28 28 27 26 26 27 27 28 26 26 26 25 24 23 22 23 24 26 28 27 28 30 29 27 28 28 28 28 27 27 28 29 30 29 27 27 29 33 35 37 41
25 26 26 26 25 24 23 22 21 20 20 19 18 17 17 16 15 15 15 15 15 15 15 16 16 17 19 20 21 23 24 26 28 29 30 31 32 32 32 31 31 30 29 29 29 29 28 28 28 27 27 27 26 26 25 24 23 24 24 24 23 25 28 29 29 29 29 29 30 29 30 30 28 27 28 29 30 29 28 28 30 33 37 38 40
22 24 25 26 25 24 23 22 21 21 20 19 18 18 18 17 16 16 16 15 15 15 16 17 18 19 20 21 23 25 26 28 30 31 33 33 34 34 33 32 32 31 31 30 30 30 30 29 29 28 27 27 26 26 25 23 22 23 25 24 23 25 27 29 29 29 30 31 31 30 30 31 30 28 28 29 31 30 29 29 30 33 35 37 38
18 21 23 24 24 23 23 22 22 21 20 19 18 18 18 18 17 17 16 16 16 17 18 19 20 21 22 24 25 27 29 31 33 34 35 35 35 35 34 33 33 32 32 31 31 30 30 29 28 28 27 27 26 25 25 24 23 23 24 24 24 25 26 26 27 29 31 32 31 29 29 30 30 29 28 29 30 29 29 29 30 31 34 37 37
17 19 20 22 23 23 23 23 22 21 20 19 18 19 19 18 17 17 17 17 18 19 20 21 22 24 25 27 29 30 32 34 35 36 36 36 36 35 35 34 33 32 32 31 31 30 29 28 28 27 27 26 25 24 24 24 24 24 24 24 25 27 26 25 27 30 30 30 28 28 29 29 29 29 28 28 29 28 27 27 29 30 34 38 38
18 19 21 22 22 23 23 23 22 20 19 18 18 19 19 18 18 18 18 19 19 21 22 23 25 27 28 30 31 33 35 36 36 36 36 35 35 34 34 34 33 32 31 31 29 28 28 27 27 26 26 25 24 23 23 23 23 24 24 24 26 27 26 26 28 29 29 29 28 30 30 29 29 28 27 27 27 27 26 27 29 31 34 39 38
20 21 21 22 22 23 22 22 20 19 18 18 18 19 19 18 18 19 19 20 21 22 24 25 27 29 30 32 34 35 36 36 36 35 35 34 33 33 32 32 32 31 31 30 29 27 26 26 25 25 24 23 23 23 23 23 23 23 23 24 25 25 25 26 27 28 29 29 30 31 31 29 29 28 26 26 27 28 27 26 27 30 33 37 35
20 20 21 21 21 22 21 20 19 18 17 18 18 18 18 18 19 19 20 21 22 24 25 27 28 30 32 34 35 36 36 36 35 34 33 33 32 32 31 31 31 30 30 30 29 28 26 24 23 22 22 22 22 22 22 22 23 22 22 22 23 24 24 25 26 27 28 30 30 30 30 29 29 28 26 26 27 28 28 26 26 27 30 35 36
18 19 20 20 20 19 19 18 18 17 17 17 18 18 18 18 19 19 20 22 23 25 27 28 30 31 33 35 36 36 35 35 34 34 33 33 32 32 32 32 31 30 29 29 29 28 27 24 22 20 20 21 21 20 20 22 23 23 22 22 23 23 23 24 25 26 27 28 29 29 29 29 28 27 28 28 27 27 27 28 29 29 29 35 40
18 19 19 18 18 18 18 18 17 16 16 16 16 17 17 18 19 20 21 23 25 26 28 29 30 32 34 34 35 34 34 34 33 33 32 32 32 32 32 32 31 30 30 29 28 27 26 24 21 19 19 20 20 20 20 21 22 23 23 23 23 24 24 24 25 26 28 29 29 29 30 30 28 27 28 28 28 27 27 29 32 33 32 33 40
19 18 18 17 17 17 17 16 15 14 14 15 15 16 17 18 19 21 23 25 26 27 28 30 31 32 33 33 33 33 32 32 32 31 31 30 30 30 30 30 30 29 29 29 28 27 26 24 22 21 21 21 21 21 22 22 24 25 25 25 26 26 26 27 27 28 29 31 32 31 30 31 30 28 28 28 28 28 28 28 29 33 35 33 35
19 18 17 17 16 16 15 14 13 13 13 14 15 16 17 19 20 22 23 25 26 27 29 30 30 31 31 31 30 30 29 29 28 28 28 28 28 28 27 28 28 28 28 28 28 28 26 25 23 23 22 22 22 23 23 24 25 26 26 27 27 27 28 29 29 30 30 32 33 32 30 29 29 28 28 28 28 29 29 28 27 30 35 34 33
19 17 16 15 15 14 13 12 11 11 12 13 14 16 17 19 20 22 23 24 26 27 28 28 28 28 28 27 26 25 24 24 24 24 24 24 24 25 25 25 26 26 26 26 26 27 26 25 24 24 23 23 23 24 24 24 24 26 26 27 27 27 27 28 29 30 31 31 32 31 28 27 26 26 26 27 28 28 29 28 28 29 31 31 32
17 16 14 13 13 12 11 10 10 10 11 12 14 15 17 18 20 21 22 23 24 25 25 25 24 23 22 21 20 19 19 20 20 20 21 22 22 23 23 24 24 25 25 25 25 25 25 25 24 24 25 25 24 24 23 23 23 24 25 24 24 25 26 27 28 29 28 27 27 27 26 24 24 24 24 25 27 28 28 27 27 29 29 27 30
15 14 13 12 11 10 9 9 9 10 11 12 14 15 17 18 19 20 21 21 21 21 20 19 18 17 16 15 15 16 17 17 18 19 20 21 22 22 22 23 23 24 24 24 24 24 25 25 25 24 23 22 23 22 21 21 21 22 22 22 22 23 24 26 27 26 24 22 22 22 23 23 23 24 24 25 27 28 29 27 25 27 30 28 29
14 12 11 10 9 8 7 8 8 9 11 12 14 15 17 18 18 18 18 17 17 16 14 12 12 12 12 13 14 14 16 17 18 19 19 20 21 21 21 21 22 22 23 23 23 24 24 24 24 22 21 21 21 21 20 20 20 20 20 20 21 22 23 24 25 23 22 21 20 20 20 20 22 23 24 25 27 27 28 27 24 24 29 31 29
11 10 9 8 7 6 7 7 8 10 11 13 14 15 15 15 15 15 14 12 11 10 9 8 9 10 11 12 13 15 16 17 17 18 19 20 20 21 21 21 22 22 23 23 23 23 22 22 22 22 22 22 21 20 20 19 19 19 19 20 20 21 21 21 22 21 20 20 20 21 21 19 19 20 21 22 24 24 25 25 23 23 26 30 30
10 9 7 6 6 6 7 8 9 11 12 12 12 12 12 11 11 9 8 7 6 6 7 8 9 10 11 13 14 15 15 16 16 17 18 19 20 20 21 21 21 21 22 22 23 23 22 21 21 21 21 22 22 21 20 20 19 18 17 16 17 19 19 19 19 19 18 18 17 18 20 19 18 18 18 19 20 21 22 23 24 25 25 27 30
10 7 5 5 6 8 9 10 10 11 10 10 9 8 7 6 5 4 4 4 5 7 8 9 10 11 12 13 13 13 14 15 17 18 19 20 20 21 21 22 22 23 23 23 23 23 22 21 20 19 19 20 21 20 19 18 17 16 13 12 13 15 15 15 15 14 14 14 14 14 15 16 16 16 16 17 18 18 19 20 22 25 26 27 30
8 6 6 8 9 10 10 9 8 7 7 6 5 4 3 2 3 4 5 6 7 8 9 10 11 12 12 13 14 15 16 18 19 20 21 22 22 23 23 23 24 24 23 22 22 21 21 21 21 20 19 19 18 17 16 16 15 14 13 12 12 13 13 11 10 10 10 11 10 10 11 12 13 14 14 14 15 16 17 18 19 22 26 27 29
7 7 7 8 8 8 7 6 4 3 2 1 1 2 3 5 6 6 7 9 10 11 11 12 12 13 14 15 17 18 20 21 22 22 23 23 23 23 24 24 23 22 21 21 21 22 22 23 23 23 22 21 19 18 16 15 14 13 14 14 14 14 14 12 10 9 10 10 10 10 11 11 11 11 11 12 12 14 15 15 15 17 21 24 26
6 6 6 6 6 5 4 2 1 1 2 3 4 6 7 8 8 9 10 11 12 12 12 13 14 15 16 17 19 20 21 22 23 23 24 24 24 24 25 25 24 23 22 22 24 25 27 28 28 28 27 26 24 22 20 18 15 13 13 13 13 14 14 13 12 11 10 10 10 10 10 10 10 9 9 9 9 9 10 12 12 12 15 19 22
5 5 5 5 4 3 2 2 4 5 6 7 8 9 9 10 11 11 12 12 12 12 13 14 15 16 17 18 19 20 21 22 23 23 24 25 25 26 26 26 26 25 26 27 28 29 30 30 30 30 29 28 27 25 22 21 19 17 16 15 14 14 14 14 14 13 12 11 10 9 9 8 7 7 7 9 10 11 10 8 8 9 11 15 18
5 5 5 4 3 3 4 6 7 8 9 10 11 11 12 12 12 12 12 12 12 12 13 14 15 16 17 18 19 20 21 22 22 23 24 25 26 27 27 28 28 28 28 29 30 30 30 29 29 29 28 27 26 25 24 22 21 19 18 17 16 15 14 13 13 12 12 10 9 8 7 7 7 8 10 12 12 13 12 9 6 6 8 10 12
5 5 5 5 5 7 8 9 10 11 12 12 13 13 12 12 12 11 11 11 12 12 13 14 15 16 16 17 18 19 20 21 21 22 24 25 26 27 28 28 28 29 29 29 29 28 28 27 27 26 26 26 25 25 25 25 24 22 21 20 19 18 17 16 15 14 12 11 10 9 9 9 10 11 12 12 11 11 12 11 8 5 5 6 7
6 6 6 7 8 10 11 12 12 13 13 14 13 12 12 11 11 10 10 11 11 12 13 13 14 14 15 16 17 17 18 19 20 21 23 24 25 26 28 28 28 29 30 29 28 27 26 25 25 25 25 25 25 25 25 25 26 26 25 25 24 24 23 22 21 19 18 17 16 14 13 13 12 11 11 11 11 12 13 13 11 7 4 3 2
8 8 9 10 12 13 14 14 14 14 14 13 12 11 11 10 10 9 10 10 11 12 12 12 12 13 14 14 15 16 16 17 18 20 21 23 24 25 26 27 28 29 29 28 27 25 24 22 22 22 22 23 24 25 26 26 27 28 28 28 28 28 28 27 25 23 22 20 19 17 16 15 13 12 12 12 12 14 15 15 14 12 10 9 8
10 11 12 13 14 15 15 16 15 15 14 12 11 10 9 9 9 9 9 9 10 10 10 11 11 12 13 13 14 14 15 16 17 19 20 21 22 23 25 26 27 29 28 27 25 24 22 20 20 20 21 22 23 24 26 27 28 29 29 29 29 29 29 29 28 27 26 24 22 21 20 18 17 16 15 14 15 18 19 20 19 17 16 15 13
13 14 15 15 16 17 17 16 15 14 12 11 10 9 9 8 8 8 8 9 9 9 10 10 11 12 13 13 14 14 15 16 17 19 20 20 21 22 24 25 26 27 27 25 25 23 21 20 21 21 21 22 23 24 25 26 27 28 29 29 30 30 31 31 31 30 30 29 28 26 25 24 22 21 19 18 20 22 24 24 21 16 13 13 12
16 16 17 17 18 18 17 16 14 12 11 10 9 9 8 8 8 7 8 8 9 9 10 10 11 12 13 14 14 15 15 16 17 19 19 20 21 22 23 24 25 25 25 24 24 23 22 23 23 23 22 23 23 24 25 25 26 27 28 29 30 31 31 32 32 31 31 32 31 30 30 29 28 26 24 23 22 24 25 25 23 16 11 8 8
18 18 19 19 18 17 16 14 13 11 10 9 9 8 8 8 8 8 8 8 9 9 10 10 11 12 13 14 15 15 16 16 17 18 19 19 20 21 22 23 23 23 23 23 23 23 24 24 24 24 24 24 24 24 24 25 26 27 28 29 30 31 31 32 32 31 32 32 32 32 32 33 32 30 28 25 24 23 24 24 24 21 16 11 8
20 20 20 19 18 16 15 13 12 11 10 9 9 8 8 8 8 8 8 8 8 9 10 10 12 12 13 14 14 14 15 16 17 18 18 18 19 20 21 21 22 22 21 21 22 23 23 24 24 24 24 24 24 24 24 25 25 26 27 28 28 29 30 30 30 31 31 32 32 32 32 33 33 32 31 30 27 25 24 24 23 22 21 19 17
21 21 20 18 17 15 14 13 11 11 10 10 9 9 8 8 8 7 8 8 9 9 10 11 11 12 13 13 14 14 15 16 16 17 17 18 19 20 19 20 20 20 20 20 21 22 22 22 23 23 24 24 23 24 24 24 24 24 25 26 26 26 27 27 28 29 30 30 30 31 31 31 32 32 31 31 31 30 28 26 25 24 23 23 22
21 20 18 17 16 15 14 13 12 11 10 10 9 9 8 8 7 7 8 8 9 9 10 10 11 12 12 13 13 14 15 15 16 17 17 18 19 18 18 19 19 18 18 19 20 21 21 21 22 22 22 22 22 23 23 23 23 23 23 24 24 24 24 25 26 26 28 28 28 29 30 30 30 30 30 30 30 30 30 28 27 27 26 24 23
21 19 18 16 15 15 14 13 12 11 10 10 9 9 8 8 7 7 8 8 9 9 10 10 11 11 12 13 13 14 14 15 16 16 17 17 18 17 17 18 18 17 18 19 19 20 20 21 21 21 21 21 21 22 22 22 22 22 22 22 22 22 23 24 24 24 25 25 26 26 27 28 28 28 28 28 28 28 28 28 27 26 26 25 23
20 19 17 17 16 15 14 13 12 11 10 10 9 9 8 8 8 8 8 8 8 9 9 10 10 11 11 12 12 13 13 14 15 15 16 16 16 16 17 17 17 17 18 18 19 19 20 20 20 20 21 21 21 21 21 21 21 21 21 21 21 21 21 22 22 22 23 23 23 24 24 25 26 26 26 26 27 27 26 26 25 25 24 23 22
20 18 18 17 16 15 14 13 12 11 10 10 9 9 8 8 7 7 7 7 7 8 8 9 9 10 10 11 11 12 12 13 14 15 15 15 15 16 16 16 16 17 17 17 18 19 19 19 19 20 20 20 20 20 21 20 20 20 20 20 20 20 20 20 20 20 20 21 21 22 22 23 23 23 23 24 24 25 25 24 24 23 23 22 21
19 18 17 16 16 15 14 13 12 11 10 10 9 8 7 7 6 6 6 5 6 6 7 8 8 9 9 10 10 11 11 12 13 14 14 14 14 15 15 15 16 16 16 17 17 18 18 19 19 19 19 19 20 20 20 20 20 20 19 19 19 19 18 18 18 18 18 19 19 20 20 20 21 21 21 21 22 22 22 22 22 22 22 21 20
19 18 17 16 15 15 14 13 12 10 9 8 7 6 5 4 4 4 4 4 5 5 6 6 7 7 8 8 9 10 10 11 12 12 12 12 13 13 14 14 15 15 15 16 16 17 17 18 18 18 19 19 19 19 19 19 19 19 19 19 18 18 17 17 17 17 17 17 17 17 17 18 18 18 18 19 19 19 19 19 19 19 19 18 18
19 18 17 16 15 14 13 12 11 9 8 7 5 4 3 2 2 2 3 3 4 4 5 5 6 6 6 7 7 8 8 9 9 10 11 11 11 12 12 13 13 14 14 15 15 16 16 16 17 17 18 18 18 18 18 18 18 18 19 18 18 17 17 16 16 16 16 16 16 15 15 15 16 16 16 16 16 16 16 16 16 16 16 16 15
19 18 17 16 15 14 12 11 9 8 7 5 4 3 2 1 1 1 2 2 3 4 4 5 6 6 6 6 6 6 7 7 8 8 9 10 10 10 11 11 12 12 13 13 14 14 14 15 15 15 16 16 16 17 17 17 17 17 18 18 17 17 17 16 16 15 15 14 14 14 14 14 14 14 14 14 14 14 14 14 13 13 13 13 13
20 18 17 16 14 13 11 10 8 7 6 5 4 3 2 2 2 2 3 3 4 4 4 5 6 6 6 7 6 6 7 7 7 7 8 9 9 9 9 10 11 11 12 12 12 12 13 13 13 14 14 14 15 15 16 16 16 16 16 16 16 16 16 16 16 15 14 14 13 13 12 12 12 12 12 12 12 12 11 11 11 11 11 11 10
20 18 17 15 13 12 10 9 8 7 6 5 4 4 4 4 4 4 5 5 5 5 5 6 6 7 7 8 8 8 8 8 7 7 7 8 9 9 9 9 10 10 11 11 11 12 12 12 12 12 13 13 13 14 14 15 15 15 15 15 15 15 15 15 15 15 14 14 13 12 12 11 11 11 10 10 10 10 10 9 9 9 9 8 8
19 17 16 14 13 11 10 9 8 7 6 6 6 6 6 6 6 6 7 7 7 7 7 7 7 7 8 9 9 9 9 9 9 9 8 8 9 9 9 9 10 10 10 11 11 11 12 12 12 12 12 12 12 12 13 13 14 14 14 14 14 14 14 14 14 14 13 13 13 12 12 11 11 10 10 9 9 9 8 8 8 7 7 7 6
18 17 15 14 13 12 10 10 9 8 8 8 8 8 8 8 8 8 9 9 9 9 9 8 8 9 9 9 10 11 11 11 11 11 11 10 10 10 10 11 11 11 11 11 11 11 11 12 12 12 12 12 12 12 12 12 13 13 13 13 13 13 13 13 13 12 12 12 12 12 12 11 11 10 10 9 9 8 8 7 7 7 6 6 5
18 17 15 14 13 12 11 11 11 10 10 10 10 10 10 10 10 10 10 11 11 11 10 10 10 11 11 11 11 12 13 13 13 14 14 13 13 13 13 13 13 13 12 12 12 12 12 12 12 13 13 13 13 13 13 13 13 13 13 13 13 13 13 12 12 12 11 11 11 11 11 11 11 11 10 10 10 9 9 8 7 7 7 6 6
18 16 15 14 14 13 13 13 13 12 12 12 12 12 12 12 12 12 12 12 12 12 12 12 12 12 12 12 13 13 14 15 15 15 15 16 16 16 16 16 15 15 15 15 14 14 14 14 14 13 14 14 14 14 14 14 14 14 14 14 14 14 13 13 12 12 11 11 11 11 11 11 11 11 11 11 11 11 10 10 9 9 8 7 7
18 17 16 15 14 14 14 14 14 14 14 13 13 13 13 13 13 13 13 14 14 14 14 15 15 15 15 14 14 15 16 16 17 17 17 17 17 18 19 19 19 19 19 18 18 17 17 16 16 16 15 15 15 15 15 15 15 15 15 15 15 15 14 14 13 13 12 11 11 11 11 11 11 11 11 11 11 11 11 11 11 11 10 10 9
18 17 16 16 16 15 15 15 15 15 15 14 14 15 15 15 15 15 15 15 16 16 16 17 17 18 18 18 18 18 18 18 19 19 19 19 19 19 19 20 20 21 21 21 21 21 20 19 19 19 18 18 17 17 16 16 16 17 17 17 16 16 15 15 14 14 13 13 13 12 12 12 12 12 12 12 12 12 12 12 12 12 12 12 12
18 18 18 17 17 17 17 16 16 16 16 16 16 16 16 17 17 17 17 18 18 18 18 19 20 20 21 21 21 21 21 21 21 21 22 22 22 22 22 22 22 22 22 23 23 23 23 23 22 22 21 21 20 19 19 18 18 18 18 17 17 17 16 16 15 15 15 15 14 14 14 14 13 14 14 14 14 14 14 14 13 13 13 13 13
Wind_Direction
237 239 240 241 244 245 248 252 254 253 248 250 257 265 272 274 274 276 278 279 281 283 286 289 293 296 297 298 299 299 300 301 302 304 305 306 307 307 307 307 306 306 305 305 304 304 305 305 305 304 302 302 301 299 297 294 291 291 290 291 290 288 288 286 287 291 292 289 288 287 286 285 284 282 278 274 273 272 269 263 250 240 242 244 235
238 239 240 240 242 245 247 250 251 250 247 249 255 263 269 269 270 274 276 279 282 285 288 291 293 295 297 299 300 302 303 305 306 307 308 309 309 309 309 308 307 307 306 305 304 304 305 304 303 302 300 300 299 297 294 292 290 287 285 286 288 288 288 287 286 288 291 290 288 287 287 287 287 285 280 275 273 273 267 260 253 245 243 244 237
236 237 238 239 242 245 247 248 248 247 245 247 254 262 265 266 268 271 275 278 281 285 287 289 292 294 296 299 302 304 306 307 308 308 308 308 308 308 308 307 306 305 304 303 303 303 303 303 302 301 299 298 297 295 293 291 288 286 284 281 281 285 285 283 282 285 289 289 287 286 287 287 288 286 281 275 272 271 266 260 257 253 247 241 234
234 235 237 239 242 245 246 245 245 244 243 247 254 260 262 263 267 270 274 278 280 283 285 287 290 293 295 299 301 304 305 306 306 307 307 307 307 306 306 305 304 304 303 302 302 302 302 302 301 299 298 296 294 292 290 287 284 285 284 281 278 280 283 284 284 284 284 285 287 287 286 287 287 286 282 277 272 270 267 260 257 256 247 236 231
238 235 237 239 241 243 244 242 242 240 241 247 253 258 260 262 266 270 274 277 279 282 285 288 291 293 295 298 300 302 304 305 305 306 306 305 305 304 303 303 302 302 302 301 301 301 301 300 299 298 296 295 292 290 288 286 284 282 282 283 281 278 280 284 287 285 283 285 288 288 287 287 287 287 283 277 272 268 266 261 260 258 246 233 230
249 242 241 239 238 239 239 239 239 238 241 247 254 258 260 262 267 271 274 277 279 283 286 289 291 294 296 298 300 302 303 305 305 305 305 304 304 303 302 302 301 301 300 300 300 300 300 299 298 297 295 293 290 288 286 284 282 280 280 281 280 278 277 278 281 284 284 286 289 289 288 288 287 287 285 278 271 268 266 265 264 258 243 232 231
259 251 245 239 236 235 236 237 238 239 243 249 255 258 260 264 269 272 275 278 281 285 288 291 293 295 297 299 300 302 303 305 306 305 304 304 303 303 302 302 301 301 300 300 300 301 301 299 298 297 295 293 290 286 283 281 280 279 278 277 277 278 278 277 279 283 286 286 287 287 288 288 286 286 285 279 271 268 267 263 262 259 243 232 232
262 251 240 233 231 231 232 235 237 240 246 251 255 258 261 266 271 274 278 281 285 289 292 294 295 297 298 299 301 303 305 306 305 304 303 303 303 302 302 302 302 302 302 301 301 301 301 301 300 298 296 293 291 288 286 284 280 278 278 277 278 280 281 281 282 284 285 284 285 286 287 287 286 286 286 282 277 274 270 264 264 264 249 236 238
256 244 233 228 227 228 231 234 238 243 248 252 255 259 263 270 274 277 281 285 289 293 295 297 298 298 299 301 303 305 305 305 304 303 302 302 303 303 303 303 304 304 304 303 303 303 303 302 301 300 299 296 293 292 292 291 287 284 282 281 282 282 282 283 283 283 284 284 286 288 287 286 285 285 284 284 283 277 267 261 264 267 255 242 241
244 233 227 225 226 229 232 235 239 243 248 251 256 261 267 272 276 281 285 290 293 295 297 299 299 300 302 304 305 305 305 304 304 304 304 305 305 305 305 305 306 306 306 305 305 305 305 304 303 304 306 305 301 297 295 295 294 292 289 287 286 285 285 286 287 287 286 287 287 288 288 287 286 284 282 283 286 278 264 261 266 268 262 249 239
232 226 224 225 228 232 235 238 240 243 248 253 259 265 271 276 281 286 290 293 296 297 299 300 301 303 304 305 305 304 304 305 306 306 308 308 309 308 308 308 308 307 307 306 306 304 303 304 304 305 304 302 300 297 294 294 296 295 292 290 289 288 288 289 290 290 289 288 288 287 286 286 284 282 280 281 285 281 270 267 267 265 266 259 241
224 222 222 225 229 234 237 239 242 246 252 259 265 271 277 282 287 291 293 295 298 299 301 303 304 305 305 305 305 305 306 308 309 310 312 312 313 313 312 312 311 311 310 309 308 306 303 302 302 302 299 295 294 295 294 294 296 296 293 290 290 289 290 291 291 291 289 288 288 288 285 284 283 281 280 279 281 282 275 268 263 261 266 267 247
220 221 223 227 231 235 238 242 246 252 259 266 273 278 283 287 290 293 295 297 299 302 304 305 306 306 306 306 308 309 311 313 314 316 317 318 318 318 318 318 317 316 316 316 315 313 310 307 305 304 303 300 298 298 298 296 294 293 291 288 287 286 287 291 293 294 293 290 288 288 285 282 281 280 279 276 276 280 279 273 266 260 261 264 255
220 222 226 231 235 238 242 246 253 260 267 274 279 284 287 290 292 294 297 300 303 306 307 307 307 308 309 311 313 315 319 322 325 328 329 330 330 329 328 327 325 324 324 322 322 320 318 315 311 309 308 307 304 301 299 296 291 290 290 290 289 289 289 292 296 297 297 294 291 290 288 285 283 279 276 274 273 274 278 279 273 260 255 260 260
219 223 229 235 239 243 247 252 260 268 275 280 284 287 290 293 296 299 303 306 307 308 309 310 312 314 317 321 325 331 336 340 342 344 343 343 342 340 338 336 333 332 329 327 326 325 323 320 316 314 310 307 306 305 303 300 296 294 295 294 293 294 294 295 297 297 298 297 294 292 291 288 285 280 275 273 273 274 276 280 275 259 251 259 264
219 225 230 234 239 244 250 258 268 275 280 284 287 291 295 298 302 305 307 309 310 311 314 318 321 326 333 341 348 354 356 355 355 355 352 351 349 346 343 340 337 335 332 328 326 325 323 319 315 314 313 311 313 314 311 308 304 301 298 296 296 297 297 296 297 297 299 300 299 297 293 289 285 281 276 273 274 276 275 277 277 261 249 255 264
219 222 226 230 236 244 254 264 273 279 285 290 293 297 300 303 306 308 310 313 316 320 325 332 340 350 358 3 5 6 5 2 1 0 357 356 354 351 348 344 341 338 335 331 327 325 324 320 316 315 317 318 319 318 313 310 307 304 304 304 304 302 299 296 295 297 300 302 304 303 299 293 286 282 280 276 274 275 274 273 279 270 252 247 253
216 218 220 228 236 247 258 270 280 288 293 297 299 302 305 307 311 313 317 322 328 334 345 358 7 10 11 10 9 8 6 3 2 1 0 360 359 357 355 352 348 344 340 335 331 329 328 325 322 321 320 319 319 316 311 305 302 304 306 308 309 306 301 295 292 294 298 301 303 305 304 301 295 289 286 283 277 274 272 269 273 275 261 248 246
207 207 213 225 243 262 276 285 292 294 296 298 301 306 311 315 319 324 331 342 353 7 17 22 21 18 15 12 9 5 2 1 1 3 3 2 2 1 1 359 356 353 350 347 344 342 338 333 328 325 320 317 314 312 307 299 294 295 299 305 311 309 302 294 289 289 294 297 301 305 305 305 304 300 296 294 288 280 274 269 266 269 267 256 247
203 205 223 252 273 283 287 289 290 291 294 300 306 313 321 327 337 353 14 30 38 40 37 31 27 23 19 16 12 9 8 9 11 10 8 6 6 5 5 4 3 1 1 359 357 353 349 344 338 333 328 322 315 310 304 295 289 290 294 302 310 308 301 294 290 291 295 300 302 305 305 304 305 305 302 300 298 292 285 277 268 264 265 262 253
221 229 250 265 271 274 276 280 284 289 297 307 316 329 348 23 54 65 70 68 62 55 48 43 39 35 32 30 28 28 28 27 24 21 17 14 13 11 10 9 7 5 4 3 1 360 359 357 353 349 344 337 328 319 310 301 297 298 303 305 305 306 305 303 303 309 313 315 316 317 318 317 313 311 307 300 297 296 293 288 278 266 261 260 258
221 228 239 251 258 264 270 274 282 292 307 328 32 83 92 96 95 92 87 80 72 66 61 57 53 49 46 43 41 38 36 34 31 28 24 22 20 18 17 16 14 11 9 8 9 11 12 11 9 6 2 357 351 344 335 326 317 309 307 307 307 308 311 314 322 329 328 327 332 335 334 331 327 325 324 316 304 295 288 287 286 275 263 258 256
211 222 237 249 254 258 260 255 223 131 125 124 119 115 113 110 106 101 93 86 79 74 70 64 59 54 49 46 43 41 39 36 34 31 28 27 26 24 23 23 21 19 19 19 20 20 19 18 16 13 11 9 6 2 357 352 346 339 332 328 325 321 321 324 327 330 330 330 334 337 333 328 328 330 333 335 332 320 301 291 290 280 264 257 254
220 233 242 243 237 227 201 153 137 134 133 129 125 123 122 117 110 102 95 89 83 77 70 64 58 53 48 45 42 40 39 37 35 33 31 30 29 28 28 27 25 25 25 25 25 23 21 19 17 15 15 13 12 11 10 7 7 7 4 360 354 348 342 337 333 331 331 330 331 333 332 328 328 337 347 356 2 0 347 322 302 285 266 261 262
225 229 224 213 194 169 151 143 139 137 135 132 129 127 124 117 109 102 95 88 82 75 68 61 56 51 46 44 41 39 38 37 35 33 32 32 32 31 30 29 27 27 28 27 26 24 22 20 19 18 17 16 17 19 20 21 21 20 18 17 15 11 5 358 352 347 342 339 339 342 343 348 2 15 19 17 14 10 7 360 336 301 277 270 271
215 206 193 177 161 150 145 143 142 140 138 136 131 127 122 115 107 100 93 86 79 72 64 58 54 49 45 43 41 40 38 36 35 34 33 33 33 32 32 30 29 29 29 28 26 25 23 22 20 20 19 19 21 24 27 29 30 31 31 30 28 26 25 22 18 15 11 9 9 9 10 16 22 26 28 25 21 22 26 25 15 342 301 285 279
196 182 170 158 151 148 147 146 145 143 140 135 131 127 120 113 104 97 90 83 75 69 62 56 52 47 45 43 42 41 39 36 35 34 33 33 34 34 33 32 31 31 31 28 25 24 23 21 20 20 22 22 24 28 31 33 35 36 37 38 39 38 38 35 31 30 29 27 25 25 26 26 26 27 30 29 29 37 42 40 35 29 19 2 332
179 167 158 153 151 150 149 147 146 143 139 134 131 126 119 111 102 95 87 79 72 66 61 57 52 48 45 44 42 41 39 36 35 34 33 34 34 35 34 33 32 33 33 30 27 26 23 20 19 21 25 26 28 31 33 35 38 40 41 42 44 45 45 42 39 38 39 37 35 36 36 35 34 34 34 34 39 44 46 45 48 54 57 54 52
168 160 155 153 153 152 150 148 146 142 138 134 129 123 116 108 99 91 83 76 71 66 61 57 53 49 46 44 42 40 37 35 34 33 33 33 33 34 34 33 32 34 34 31 30 29 26 22 21 24 28 29 31 33 35 36 39 41 43 44 45 46 47 47 45 44 45 45 44 44 44 43 43 43 41 43 49 51 49 48 50 53 52 49 49
162 158 156 155 154 153 151 148 145 141 138 134 127 120 111 102 94 88 82 77 72 66 60 56 53 50 46 43 40 37 34 33 33 32 32 32 31 32 34 33 34 35 34 33 33 34 31 30 29 29 31 32 33 36 38 38 39 41 43 44 46 46 47 48 47 47 48 48 48 49 49 49 49 49 49 51 55 56 55 53 52 56 62 65 74
160 158 157 156 155 153 150 146 142 140 138 133 125 116 108 99 92 87 82 77 71 65 60 56 53 50 46 42 39 36 34 34 34 33 32 31 31 33 34 34 35 35 33 32 33 34 34 35 36 35 35 36 36 38 39 40 41 42 43 44 46 47 47 48 48 48 49 50 51 51 52 52 52 53 53 55 59 61 60 58 56 63 82 96 105
159 158 156 154 153 151 147 144 142 138 134 128 121 114 108 99 93 87 80 75 70 64 59 54 51 49 45 42 38 36 36 35 35 35 34 32 33 34 34 34 35 34 32 32 32 33 34 36 37 38 38 38 39 39 40 41 41 42 42 43 44 45 46 46 47 47 48 49 50 52 55 55 55 56 57 59 62 65 67 66 62 62 68 78 91
158 157 155 152 150 149 146 143 141 135 131 126 119 113 107 100 94 88 79 73 67 61 55 52 49 47 45 43 40 38 38 37 37 37 35 34 35 36 35 34 35 34 32 31 31 31 33 34 36 37 38 38 39 39 40 42 43 43 43 43 43 43 44 45 46 47 48 48 48 50 53 55 57 58 59 60 62 64 67 69 69 67 66 68 72
157 156 154 151 150 149 145 141 139 134 130 125 119 113 108 102 95 87 77 70 63 58 53 50 48 47 45 43 40 39 39 39 38 37 35 35 36 37 36 35 35 34 32 32 32 33 33 34 35 37 38 39 39 39 40 41 43 44 45 46 45 44 44 44 44 46 47 48 48 49 51 53 55 57 58 60 62 62 64 66 70 71 70 68 68
156 154 153 152 150 148 145 142 138 135 131 127 121 116 111 104 97 87 78 70 64 59 54 49 46 45 43 41 40 38 38 38 38 37 35 36 36 36 35 35 36 34 33 33 34 34 34 34 35 36 38 39 39 40 40 41 42 43 45 47 47 46 46 45 44 45 47 47 48 49 50 51 53 54 56 58 61 62 63 64 66 70 71 70 68
155 154 153 152 150 147 145 143 140 137 134 129 124 119 115 109 101 92 84 76 69 63 56 49 45 43 40 39 38 37 37 38 38 36 35 35 36 35 35 35 35 34 34 35 35 35 35 35 34 35 36 37 39 40 40 41 41 41 43 45 46 46 46 47 45 46 47 48 48 49 50 51 52 53 54 56 58 61 62 63 63 66 69 71 71
156 156 155 153 149 147 145 144 142 140 136 131 127 124 119 113 104 96 89 81 73 67 61 53 47 43 39 37 36 35 37 38 38 37 35 34 33 33 33 34 33 33 34 35 35 36 36 35 34 34 34 35 36 38 39 40 41 41 41 42 43 42 43 45 45 45 47 48 49 50 51 52 52 53 53 55 56 58 60 62 63 64 67 69 71
158 158 156 153 150 148 147 147 145 142 139 134 131 127 121 114 108 100 92 84 75 68 61 54 47 42 39 36 33 33 34 36 37 37 35 33 31 30 31 32 32 32 33 34 35 35 36 36 35 35 34 34 34 35 36 38 40 41 40 41 41 40 40 42 43 43 45 46 47 49 51 52 53 53 53 55 56 56 57 59 60 62 64 66 68
160 158 157 155 153 151 151 150 148 146 143 138 134 129 123 117 112 103 93 82 72 62 54 49 43 38 35 32 30 29 30 32 33 33 31 30 30 28 28 29 30 30 31 33 34 34 34 34 34 34 34 34 33 34 34 35 36 37 39 40 41 41 40 40 40 41 43 45 45 46 48 50 52 53 53 54 56 57 57 58 58 58 60 61 63
162 160 159 158 157 155 155 154 152 151 149 144 139 136 131 123 113 102 88 74 62 52 45 39 34 30 28 26 24 25 26 28 29 28 27 27 27 26 26 26 26 27 28 29 31 32 32 32 32 32 32 32 33 32 33 33 33 33 35 36 38 40 41 41 40 39 40 42 43 44 46 48 49 51 52 53 55 57 58 59 60 60 60 60 60
164 163 162 162 161 160 161 161 161 160 159 156 154 151 144 132 111 90 71 58 48 39 32 27 21 18 17 17 16 17 19 22 23 22 21 21 21 22 22 23 22 23 23 24 26 27 28 29 29 29 29 29 30 30 31 31 31 31 31 32 33 34 36 38 39 39 39 40 40 41 43 44 46 48 49 50 53 54 56 59 60 61 62 63 63
167 166 166 167 167 166 167 169 171 171 171 171 173 173 172 167 123 40 23 22 20 14 10 7 4 1 1 2 3 4 7 10 13 14 13 12 12 13 15 16 16 17 17 18 19 20 21 22 23 24 24 25 25 26 27 27 28 28 28 28 28 29 30 32 33 34 36 38 38 38 39 41 42 44 44 45 48 50 51 54 57 60 62 63 65
170 170 171 172 172 174 177 180 182 185 187 191 198 209 227 248 280 308 320 330 338 341 343 343 343 344 346 345 345 347 350 354 359 2 1 0 360 1 4 5 6 7 8 8 9 11 12 13 14 15 17 17 18 19 20 21 22 23 23 23 24 24 25 26 27 28 30 32 33 34 35 36 37 39 40 40 42 43 44 45 48 51 55 58 60
173 174 176 177 179 182 187 190 195 200 205 213 225 241 256 272 283 293 299 304 310 317 321 323 325 328 331 332 332 333 335 337 341 344 346 345 345 346 348 351 352 353 354 355 356 358 0 2 3 4 6 7 9 10 11 12 13 14 15 15 17 18 19 20 21 22 23 24 25 27 29 29 30 32 34 35 36 37 37 38 38 39 41 44 46
177 178 180 183 186 190 195 201 208 216 223 233 244 254 262 270 278 284 287 290 294 298 303 307 310 314 318 320 321 324 325 325 325 326 328 329 330 329 331 333 335 336 338 339 341 343 345 347 349 350 352 354 356 358 360 1 2 3 4 5 6 7 10 12 13 14 15 16 17 19 21 21 22 23 23 25 26 26 27 28 28 29 28 26 26
181 184 186 190 194 198 204 210 217 225 234 244 253 259 263 266 271 275 278 281 285 289 293 298 302 305 308 310 312 314 315 315 314 314 315 316 317 317 318 319 319 320 322 323 325 327 330 332 334 336 338 340 342 343 346 348 350 351 352 353 353 354 356 358 1 3 5 6 8 9 10 11 11 12 13 13 12 13 13 13 12 12 11 8 5
187 190 194 198 202 207 213 219 225 231 238 246 253 258 260 263 267 271 275 278 282 285 289 292 295 298 301 303 304 305 304 305 305 305 306 308 309 309 309 309 308 309 310 311 312 313 315 317 320 323 325 327 329 330 332 335 336 338 339 340 340 340 341 342 345 348 350 353 355 356 357 358 359 359 359 359 359 358 358 357 356 356 354 352 350
193 197 201 205 209 214 221 227 233 237 242 248 252 255 258 260 264 269 273 276 280 284 287 289 291 293 295 296 296 296 296 295 296 297 299 301 302 303 303 303 303 303 302 303 304 305 306 307 309 311 313 315 317 318 320 322 324 327 329 329 328 328 327 327 328 330 333 336 339 340 342 343 344 344 345 346 346 345 344 343 342 341 339 338 336
198 203 208 213 217 222 227 233 237 241 246 251 255 258 261 263 266 269 272 275 279 282 285 286 287 289 290 291 291 290 289 290 290 292 293 294 295 296 298 299 299 300 300 300 300 301 302 302 303 303 304 306 307 308 310 312 314 316 319 320 320 319 317 316 316 317 318 321 323 326 328 329 330 331 331 331 331 332 331 331 330 329 328 326 323
204 208 214 218 222 226 231 235 239 243 248 253 258 262 265 268 270 272 274 276 279 281 282 284 285 286 287 288 289 288 288 288 289 290 290 290 291 291 292 293 294 296 297 298 299 299 300 300 300 300 300 300 300 301 301 302 304 306 309 312 313 312 310 308 307 307 308 309 311 313 316 318 319 320 321 320 320 320 319 319 318 317 317 316 315
210 215 219 222 225 228 232 236 240 245 250 254 258 262 265 268 271 273 275 277 279 281 282 283 284 285 286 287 288 288 288 288 288 289 290 291 291 292 292 293 293 293 294 295 295 296 297 297 297 297 296 296 296 296 296 296 296 298 300 304 306 306 304 303 302 301 301 303 304 306 308 310 311 313 313 313 313 313 312 312 311 309 308 308 308
Height
3144 3145 3146 3146 3147 3148 3148 3149 3149 3149 3149 3149 3149 3149 3149 3149 3149 3148 3148 3147 3146 3146 3145 3144 3144 3143 3142 3141 3140 3139 3137 3136 3134 3133 3131 3129 3128 3126 3124 3122 3120 3119 3117 3115 3113 3112 3111 3110 3108 3106 3104 3103 3102 3100 3099 3097 3096 3095 3094 3093 3092 3090 3089 3088 3086 3086 3087 3086 3084 3083 3082 3081 3080 3079 3078 3077 3077 3077 3077 3077 3078 3079 3080 3081 3083
3142 3142 3143 3144 3145 3146 3146 3146 3146 3147 3147 3147 3147 3147 3147 3147 3147 3146 3146 3145 3144 3144 3143 3142 3142 3141 3140 3138 3137 3136 3134 3133 3132 3130 3128 3126 3124 3122 3120 3118 3117 3115 3113 3112 3110 3108 3107 3106 3104 3103 3101 3099 3098 3097 3095 3094 3093 3092 3091 3090 3089 3087 3086 3085 3084 3082 3082 3083 3081 3079 3078 3077 3076 3076 3074 3073 3073 3072 3073 3073 3074 3075 3075 3076 3078
3139 3140 3141 3142 3143 3144 3144 3144 3144 3144 3144 3145 3145 3145 3145 3145 3144 3144 3144 3143 3142 3142 3141 3140 3139 3138 3137 3136 3135 3133 3132 3130 3128 3127 3125 3123 3121 3119 3117 3115 3113 3111 3110 3108 3106 3105 3103 3102 3101 3099 3097 3096 3094 3093 3091 3091 3090 3088 3087 3086 3085 3084 3083 3082 3081 3079 3078 3078 3078 3076 3074 3073 3072 3072 3070 3069 3069 3068 3068 3069 3070 3070 3070 3071 3073
3137 3138 3139 3140 3141 3141 3141 3141 3142 3142 3142 3142 3142 3143 3143 3142 3142 3142 3141 3141 3140 3139 3139 3138 3137 3136 3135 3133 3132 3130 3129 3127 3125 3123 3121 3119 3118 3115 3113 3111 3109 3108 3106 3104 3103 3101 3099 3098 3097 3095 3093 3092 3090 3089 3088 3087 3086 3085 3084 3083 3082 3081 3080 3079 3077 3075 3074 3074 3074 3072 3071 3069 3068 3068 3067 3065 3064 3064 3064 3065 3065 3065 3066 3067 3068
3135 3135 3136 3137 3138 3138 3139 3139 3139 3139 3140 3140 3140 3140 3140 3140 3140 3139 3139 3139 3138 3137 3136 3136 3134 3133 3132 3130 3129 3127 3125 3124 3122 3120 3118 3116 3114 3112 3110 3108 3106 3104 3102 3100 3099 3097 3095 3094 3092 3091 3089 3088 3087 3085 3084 3083 3082 3081 3080 3079 3079 3078 3076 3075 3074 3073 3071 3069 3069 3068 3067 3065 3064 3063 3063 3061 3060 3059 3060 3061 3061 3061 3061 3063 3064
3133 3133 3134 3135 3135 3135 3136 3136 3137 3137 3137 3138 3138 3138 3138 3138 3137 3137 3137 3136 3135 3135 3134 3133 3132 3130 3129 3127 3126 3124 3122 3120 3118 3116 3114 3112 3110 3108 3106 3104 3102 3100 3098 3096 3094 3093 3091 3090 3088 3087 3085 3084 3082 3081 3080 3079 3078 3077 3076 3076 3075 3073 3072 3071 3070 3069 3067 3065 3064 3063 3063 3062 3060 3059 3059 3057 3056 3055 3055 3056 3056 3057 3057 3059 3060
3130 3130 3131 3131 3132 3132 3133 3133 3134 3135 3135 3135 3135 3135 3136 3135 3135 3135 3134 3134 3133 3132 3131 3130 3129 3128 3126 3124 3123 3121 3119 3117 3115 3113 3110 3108 3106 3104 3102 3100 3098 3096 3094 3092 3091 3089 3087 3086 3084 3083 3081 3080 3078 3077 3076 3075 3074 3073 3072 3072 3070 3069 3068 3067 3066 3064 3063 3061 3060 3059 3059 3058 3057 3056 3055 3053 3052 3051 3051 3052 3052 3053 3054 3055 3056
3126 3127 3127 3128 3129 3129 3130 3131 3132 3132 3133 3133 3133 3133 3133 3133 3133 3132 3132 3131 3130 3129 3128 3127 3126 3124 3123 3121 3119 3117 3115 3113 3111 3109 3106 3104 3102 3100 3098 3096 3094 3092 3090 3088 3087 3085 3084 3082 3080 3079 3077 3076 3074 3073 3072 3071 3070 3070 3069 3067 3066 3065 3064 3063 3062 3061 3059 3058 3057 3056 3055 3054 3053 3052 3051 3050 3048 3048 3048 3048 3048 3049 3050 3051 3053
3123 3124 3124 3125 3126 3127 3128 3129 3130 3130 3130 3130 3131 3131 3131 3130 3130 3130 3129 3128 3128 3127 3126 3124 3123 3121 3119 3117 3115 3113 3111 3109 3107 3105 3103 3100 3098 3096 3094 3092 3091 3089 3087 3085 3083 3082 3080 3079 3077 3075 3074 3073 3071 3070 3069 3067 3066 3065 3065 3064 3063 3062 3060 3059 3058 3057 3055 3054 3053 3052 3051 3050 3049 3048 3047 3046 3045 3045 3044 3044 3044 3045 3046 3048 3050
3121 3122 3122 3123 3124 3125 3126 3127 3127 3128 3128 3128 3128 3128 3128 3128 3128 3127 3126 3126 3125 3124 3123 3121 3119 3118 3116 3114 3112 3109 3107 3105 3103 3100 3098 3096 3094 3092 3090 3089 3087 3085 3083 3082 3080 3078 3077 3075 3074 3072 3071 3070 3069 3067 3066 3065 3063 3061 3061 3060 3059 3058 3056 3055 3054 3052 3051 3050 3049 3048 3047 3046 3045 3044 3043 3042 3042 3041 3041 3040 3040 3041 3042 3043 3044
3119 3120 3121 3122 3123 3124 3125 3125 3125 3125 3125 3125 3126 3126 3126 3125 3125 3125 3124 3123 3122 3121 3119 3118 3116 3114 3112 3110 3108 3105 3103 3101 3099 3097 3094 3092 3091 3089 3087 3085 3083 3081 3080 3078 3077 3075 3073 3072 3070 3069 3068 3067 3066 3065 3063 3062 3060 3058 3057 3056 3055 3053 3052 3051 3050 3048 3047 3045 3045 3044 3043 3041 3041 3040 3039 3038 3038 3037 3037 3037 3036 3037 3037 3037 3037
3118 3118 3119 3121 3122 3122 3123 3123 3123 3123 3123 3123 3123 3123 3123 3123 3123 3122 3121 3120 3119 3117 3116 3114 3113 3111 3109 3107 3104 3102 3100 3098 3095 3093 3091 3089 3087 3085 3083 3081 3080 3078 3076 3075 3073 3072 3070 3068 3067 3066 3065 3064 3063 3061 3060 3059 3057 3055 3054 3052 3051 3049 3048 3046 3045 3044 3043 3041 3040 3039 3038 3037 3036 3036 3035 3035 3034 3033 3033 3033 3033 3033 3032 3031 3032
3116 3117 3118 3119 3120 3121 3121 3121 3121 3121 3121 3121 3121 3121 3121 3120 3120 3119 3118 3117 3116 3114 3113 3111 3110 3108 3106 3104 3101 3099 3097 3095 3093 3090 3088 3086 3084 3082 3080 3079 3077 3075 3073 3071 3070 3068 3067 3065 3064 3062 3061 3060 3059 3058 3057 3055 3054 3052 3051 3049 3047 3046 3044 3043 3041 3040 3038 3036 3035 3034 3033 3032 3031 3032 3031 3030 3030 3029 3029 3029 3029 3029 3028 3028 3028
3114 3116 3117 3118 3118 3119 3119 3119 3119 3119 3119 3119 3119 3119 3118 3118 3117 3117 3115 3114 3113 3111 3110 3108 3107 3105 3103 3101 3099 3097 3095 3093 3091 3088 3086 3084 3082 3080 3078 3076 3074 3073 3071 3069 3067 3065 3064 3062 3061 3059 3058 3057 3056 3055 3053 3052 3050 3049 3047 3045 3043 3042 3040 3039 3037 3036 3034 3032 3030 3028 3028 3027 3027 3027 3027 3026 3025 3025 3025 3025 3025 3025 3025 3025 3026
3113 3115 3116 3116 3117 3117 3117 3117 3117 3117 3117 3117 3117 3116 3116 3115 3115 3114 3112 3111 3110 3109 3107 3106 3104 3103 3101 3099 3097 3095 3093 3091 3089 3087 3085 3083 3081 3079 3077 3074 3072 3070 3068 3066 3065 3063 3061 3059 3058 3056 3055 3054 3052 3051 3050 3048 3047 3045 3044 3042 3040 3038 3037 3035 3034 3032 3030 3028 3026 3024 3023 3023 3023 3022 3022 3022 3021 3021 3021 3021 3020 3020 3020 3021 3022
3112 3113 3114 3114 3115 3115 3115 3115 3115 3115 3115 3115 3114 3114 3114 3113 3112 3111 3110 3109 3108 3106 3105 3104 3102 3101 3100 3098 3096 3094 3093 3091 3089 3087 3084 3082 3080 3077 3075 3073 3071 3069 3067 3065 3063 3061 3059 3057 3056 3054 3053 3051 3049 3048 3047 3045 3044 3042 3040 3039 3037 3035 3033 3032 3030 3028 3027 3025 3023 3021 3020 3019 3019 3018 3018 3017 3017 3016 3016 3016 3015 3016 3016 3016 3017
3110 3111 3112 3112 3113 3113 3113 3113 3113 3113 3113 3112 3112 3112 3111 3110 3110 3109 3108 3107 3106 3105 3104 3103 3101 3100 3099 3097 3096 3094 3092 3090 3088 3086 3084 3081 3079 3077 3074 3072 3070 3068 3065 3063 3061 3059 3057 3055 3054 3052 3050 3049 3047 3045 3044 3042 3041 3039 3037 3035 3034 3032 3030 3028 3026 3025 3023 3022 3020 3019 3017 3016 3015 3014 3014 3013 3012 3012 3012 3011 3012 3011 3011 3011 3012
3109 3110 3110 3110 3111 3111 3111 3111 3111 3111 3110 3110 3110 3110 3109 3108 3108 3107 3106 3105 3105 3104 3103 3102 3101 3100 3099 3097 3096 3094 3092 3090 3088 3085 3083 3081 3078 3076 3073 3071 3069 3066 3064 3062 3060 3058 3055 3053 3051 3049 3048 3046 3045 3043 3042 3040 3038 3036 3034 3032 3031 3029 3027 3025 3024 3022 3020 3019 3017 3015 3014 3013 3012 3011 3010 3009 3008 3008 3007 3007 3008 3007 3006 3007 3008
3107 3108 3108 3109 3109 3109 3109 3109 3109 3109 3109 3108 3108 3108 3107 3107 3106 3106 3105 3104 3104 3103 3103 3102 3101 3100 3099 3097 3095 3093 3091 3089 3087 3085 3083 3080 3078 3075 3073 3070 3068 3065 3063 3061 3058 3056 3054 3052 3050 3047 3045 3043 3042 3040 3039 3037 3036 3034 3032 3030 3028 3026 3025 3023 3021 3020 3018 3016 3015 3013 3011 3010 3008 3007 3006 3005 3004 3003 3003 3003 3004 3004 3003 3004 3004
3106 3106 3106 3106 3107 3107 3107 3108 3107 3107 3107 3107 3107 3106 3106 3106 3105 3105 3105 3104 3104 3103 3103 3102 3101 3100 3098 3097 3095 3093 3091 3089 3087 3085 3082 3080 3077 3075 3072 3070 3067 3065 3062 3060 3058 3056 3053 3051 3048 3046 3043 3041 3039 3037 3036 3034 3033 3031 3030 3028 3026 3024 3023 3021 3019 3018 3016 3014 3012 3011 3009 3007 3006 3004 3003 3002 3001 3000 2999 2999 2999 2999 2999 3000 3000
3104 3104 3104 3105 3106 3106 3107 3107 3106 3106 3106 3106 3106 3106 3106 3105 3105 3105 3105 3105 3104 3103 3103 3102 3101 3100 3098 3097 3095 3093 3091 3089 3086 3084 3082 3079 3077 3074 3072 3069 3067 3064 3062 3060 3058 3056 3053 3050 3047 3045 3042 3039 3037 3035 3033 3031 3030 3029 3027 3025 3024 3023 3021 3019 3017 3015 3014 3012 3010 3008 3007 3005 3004 3002 3001 2999 2998 2997 2996 2995 2995 2995 2995 2996 2996
3102 3102 3103 3104 3105 3105 3105 3105 3105 3105 3105 3105 3105 3105 3105 3105 3105 3105 3105 3105 3104 3103 3103 3102 3101 3100 3098 3097 3095 3093 3091 3089 3086 3084 3082 3080 3077 3075 3072 3069 3067 3065 3062 3060 3058 3055 3052 3050 3047 3044 3042 3039 3036 3034 3031 3029 3028 3026 3024 3023 3022 3020 3019 3018 3016 3014 3012 3010 3009 3007 3005 3004 3002 3000 2999 2997 2996 2994 2993 2992 2991 2991 2991 2992 2993
3101 3101 3102 3103 3103 3103 3104 3104 3104 3104 3104 3105 3105 3105 3106 3106 3106 3106 3105 3105 3104 3104 3103 3102 3101 3100 3098 3097 3095 3093 3091 3089 3087 3085 3082 3080 3078 3075 3072 3070 3068 3065 3063 3060 3058 3055 3052 3050 3047 3045 3042 3039 3036 3034 3031 3029 3026 3024 3022 3021 3019 3018 3017 3016 3014 3013 3011 3009 3008 3006 3004 3003 3001 2999 2997 2995 2994 2992 2990 2989 2988 2988 2988 2989 2990
3100 3100 3101 3101 3102 3102 3103 3103 3103 3104 3104 3105 3105 3106 3106 3106 3106 3106 3105 3105 3105 3104 3103 3102 3101 3100 3098 3097 3095 3093 3091 3089 3087 3085 3083 3080 3078 3075 3073 3071 3068 3066 3063 3060 3058 3055 3053 3051 3048 3046 3043 3041 3038 3035 3032 3029 3027 3024 3022 3020 3018 3017 3015 3014 3013 3011 3010 3008 3007 3005 3004 3002 3000 2998 2996 2994 2992 2990 2989 2987 2986 2986 2986 2986 2987
3099 3099 3100 3100 3101 3102 3102 3103 3103 3104 3105 3105 3106 3106 3106 3106 3106 3106 3105 3105 3105 3104 3103 3102 3101 3100 3098 3097 3095 3093 3091 3090 3088 3086 3084 3081 3079 3076 3074 3071 3069 3066 3063 3061 3059 3056 3054 3052 3050 3048 3045 3043 3040 3037 3034 3031 3028 3026 3023 3021 3019 3016 3015 3013 3012 3010 3009 3007 3006 3004 3003 3001 2999 2997 2995 2993 2992 2990 2988 2986 2985 2985 2985 2985 2985
3098 3098 3099 3100 3100 3101 3102 3103 3103 3104 3105 3106 3106 3106 3106 3106 3106 3106 3106 3105 3105 3104 3103 3102 3101 3100 3098 3097 3095 3094 3092 3090 3088 3086 3084 3082 3080 3077 3075 3072 3070 3067 3064 3062 3060 3058 3056 3054 3052 3050 3047 3045 3042 3039 3036 3033 3030 3028 3025 3022 3020 3017 3015 3013 3011 3010 3008 3006 3005 3003 3002 3000 2998 2997 2995 2994 2992 2990 2988 2986 2985 2984 2984 2983 2983
3097 3098 3098 3099 3100 3101 3102 3103 3104 3105 3105 3106 3106 3106 3106 3106 3106 3106 3106 3105 3104 3104 3103 3102 3101 3100 3099 3097 3096 3094 3093 3091 3089 3087 3085 3083 3081 3078 3076 3074 3071 3069 3066 3064 3062 3060 3058 3056 3054 3052 3049 3047 3044 3041 3038 3036 3033 3030 3027 3024 3021 3019 3016 3014 3012 3010 3008 3007 3005 3003 3002 3000 2999 2997 2996 2994 2993 2990 2988 2987 2985 2984 2983 2983 2983
3096 3097 3098 3099 3100 3102 3103 3103 3104 3105 3106 3106 3106 3106 3106 3106 3106 3106 3105 3105 3104 3103 3103 3102 3102 3100 3099 3098 3096 3095 3094 3092 3090 3088 3086 3084 3082 3080 3078 3076 3073 3070 3068 3066 3064 3062 3060 3058 3057 3054 3052 3049 3046 3043 3041 3038 3035 3032 3029 3026 3024 3021 3019 3017 3015 3012 3010 3008 3006 3005 3003 3002 3000 2998 2997 2995 2993 2991 2989 2988 2986 2985 2984 2984 2984
3096 3097 3098 3099 3101 3102 3103 3104 3105 3105 3106 3106 3106 3106 3106 3106 3106 3106 3105 3105 3104 3104 3103 3103 3102 3101 3099 3098 3097 3096 3094 3092 3091 3089 3087 3085 3083 3081 3079 3077 3074 3072 3070 3068 3066 3064 3063 3061 3059 3057 3054 3051 3048 3046 3043 3040 3037 3035 3032 3030 3027 3025 3022 3020 3018 3015 3013 3011 3009 3007 3005 3003 3002 3000 2998 2997 2995 2993 2991 2989 2988 2986 2986 2986 2986
3096 3097 3098 3100 3101 3102 3103 3104 3105 3105 3106 3106 3106 3106 3106 3106 3106 3105 3105 3105 3104 3104 3103 3103 3102 3101 3100 3098 3097 3096 3094 3093 3091 3089 3087 3086 3084 3082 3080 3078 3075 3073 3072 3070 3068 3067 3065 3063 3061 3058 3056 3053 3051 3048 3045 3043 3040 3038 3035 3033 3030 3028 3026 3023 3021 3019 3017 3014 3012 3009 3007 3005 3004 3002 3001 2999 2997 2995 2994 2993 2991 2991 2990 2990 2990
3096 3097 3099 3100 3101 3103 3103 3104 3105 3105 3106 3106 3106 3106 3106 3106 3106 3105 3105 3105 3104 3104 3103 3103 3102 3101 3100 3098 3097 3096 3094 3093 3091 3089 3088 3086 3085 3083 3081 3079 3077 3075 3074 3072 3070 3069 3067 3065 3062 3060 3058 3055 3053 3050 3048 3046 3043 3041 3038 3036 3034 3031 3029 3027 3025 3023 3020 3018 3016 3013 3011 3008 3007 3005 3003 3002 3000 2999 2998 2997 2997 2996 2995 2995 2995
3096 3098 3099 3100 3102 3103 3103 3104 3105 3105 3105 3105 3106 3106 3106 3106 3106 3106 3105 3105 3104 3104 3103 3103 3102 3101 3100 3099 3097 3096 3095 3093 3092 3090 3089 3087 3085 3084 3082 3080 3078 3077 3076 3074 3072 3071 3069 3066 3064 3062 3060 3057 3055 3053 3051 3048 3046 3044 3041 3039 3036 3034 3032 3030 3029 3027 3024 3022 3020 3017 3015 3013 3011 3009 3007 3006 3005 3003 3002 3002 3001 3000 3000 2999 2999
3096 3098 3099 3101 3102 3103 3103 3104 3104 3105 3105 3105 3106 3106 3106 3106 3106 3106 3105 3105 3105 3104 3103 3102 3102 3101 3100 3099 3098 3097 3095 3094 3092 3091 3089 3088 3086 3085 3083 3082 3080 3079 3077 3076 3074 3072 3070 3068 3066 3064 3061 3059 3057 3055 3053 3051 3049 3047 3044 3042 3040 3038 3036 3034 3032 3030 3028 3026 3024 3022 3019 3017 3016 3014 3012 3010 3009 3008 3006 3005 3005 3004 3004 3003 3003
3096 3098 3099 3100 3101 3102 3103 3104 3104 3105 3105 3105 3106 3106 3106 3106 3106 3106 3105 3105 3104 3104 3103 3103 3102 3101 3100 3099 3098 3097 3096 3094 3093 3092 3090 3089 3087 3086 3084 3083 3081 3080 3079 3077 3076 3074 3072 3070 3068 3065 3063 3061 3059 3057 3055 3053 3052 3050 3047 3045 3043 3041 3040 3038 3036 3034 3031 3030 3028 3026 3024 3022 3020 3018 3017 3015 3014 3012 3011 3010 3009 3008 3008 3007 3007
3096 3098 3099 3100 3101 3102 3103 3103 3104 3105 3105 3105 3106 3106 3106 3106 3106 3106 3105 3105 3105 3104 3103 3103 3102 3101 3100 3100 3099 3097 3096 3095 3093 3092 3091 3089 3088 3087 3085 3084 3083 3082 3080 3079 3077 3075 3073 3071 3069 3067 3065 3064 3062 3060 3058 3056 3054 3052 3050 3048 3047 3045 3043 3041 3039 3037 3035 3033 3032 3030 3028 3026 3024 3023 3022 3020 3019 3017 3016 3015 3014 3013 3012 3011 3011
3096 3098 3099 3100 3101 3102 3103 3103 3104 3105 3105 3105 3106 3106 3106 3106 3106 3106 3105 3105 3105 3104 3104 3103 3102 3101 3101 3100 3099 3098 3097 3095 3094 3093 3092 3090 3089 3088 3087 3085 3084 3083 3081 3080 3078 3076 3074 3073 3071 3069 3067 3065 3064 3062 3060 3058 3056 3055 3053 3051 3049 3048 3046 3044 3042 3040 3039 3037 3035 3034 3032 3030 3028 3027 3026 3024 3023 3022 3021 3020 3019 3018 3017 3016 3015
3096 3098 3099 3100 3101 3102 3103 3103 3104 3104 3105 3105 3106 3106 3106 3106 3106 3106 3106 3105 3105 3104 3104 3103 3103 3102 3101 3100 3099 3098 3097 3096 3095 3094 3092 3091 3090 3089 3088 3086 3085 3084 3082 3081 3079 3077 3076 3074 3072 3071 3069 3067 3065 3064 3062 3060 3058 3057 3055 3053 3052 3050 3048 3046 3045 3044 3042 3040 3039 3037 3036 3034 3032 3031 3030 3028 3027 3026 3025 3024 3023 3023 3022 3021 3020
3096 3097 3098 3100 3101 3102 3103 3103 3104 3104 3105 3105 3106 3106 3106 3106 3106 3106 3106 3105 3105 3105 3104 3104 3103 3102 3101 3101 3100 3099 3098 3096 3095 3094 3093 3092 3091 3090 3088 3087 3086 3085 3083 3082 3080 3078 3077 3075 3074 3072 3070 3069 3067 3065 3064 3062 3060 3059 3057 3055 3054 3052 3051 3049 3048 3046 3045 3043 3042 3040 3039 3037 3036 3035 3033 3032 3031 3030 3028 3028 3027 3026 3025 3025 3024
3096 3097 3098 3099 3100 3101 3102 3103 3104 3104 3105 3105 3106 3106 3106 3106 3106 3106 3106 3105 3105 3105 3104 3104 3103 3102 3102 3101 3100 3099 3098 3096 3095 3094 3093 3092 3091 3090 3089 3088 3087 3085 3084 3082 3081 3079 3078 3076 3075 3073 3072 3070 3068 3067 3065 3063 3062 3060 3059 3057 3056 3055 3053 3052 3050 3049 3047 3046 3044 3043 3042 3040 3039 3038 3037 3035 3034 3033 3032 3031 3030 3029 3029 3028 3028
3096 3097 3098 3099 3100 3101 3102 3103 3103 3104 3105 3105 3105 3105 3106 3106 3106 3105 3105 3105 3105 3104 3104 3103 3103 3102 3102 3101 3100 3099 3098 3097 3096 3095 3094 3093 3092 3091 3090 3088 3087 3086 3085 3083 3082 3080 3079 3077 3076 3074 3073 3071 3070 3068 3066 3065 3063 3062 3060 3059 3058 3056 3055 3054 3052 3051 3049 3048 3047 3045 3044 3043 3042 3041 3040 3039 3037 3036 3036 3035 3034 3033 3032 3031 3031
3095 3097 3098 3099 3100 3101 3102 3102 3103 3104 3104 3104 3105 3105 3105 3105 3105 3105 3105 3104 3104 3104 3103 3103 3102 3102 3101 3101 3100 3099 3098 3097 3096 3095 3094 3093 3092 3091 3090 3089 3088 3086 3085 3084 3082 3081 3080 3078 3077 3075 3074 3072 3071 3069 3068 3066 3065 3063 3062 3060 3059 3058 3057 3055 3054 3053 3051 3050 3049 3047 3046 3045 3044 3043 3042 3041 3040 3039 3038 3038 3037 3036 3035 3035 3034
3095 3096 3098 3099 3100 3100 3101 3102 3103 3103 3104 3104 3104 3104 3104 3104 3104 3104 3104 3104 3104 3103 3103 3102 3102 3101 3101 3100 3100 3099 3098 3097 3096 3095 3094 3093 3092 3091 3090 3089 3088 3087 3086 3084 3083 3082 3080 3079 3077 3076 3075 3073 3072 3070 3069 3067 3066 3064 3063 3062 3060 3059 3058 3057 3055 3054 3053 3051 3050 3049 3048 3047 3046 3045 3044 3043 3042 3041 3041 3040 3039 3038 3038 3037 3037
3095 3096 3097 3098 3099 3100 3101 3102 3102 3103 3103 3103 3104 3104 3104 3104 3104 3103 3103 3103 3103 3102 3102 3102 3101 3101 3100 3099 3099 3098 3097 3097 3096 3095 3094 3093 3092 3091 3090 3089 3088 3087 3086 3084 3083 3082 3081 3080 3078 3077 3075 3074 3072 3071 3070 3068 3067 3065 3064 3063 3061 3060 3059 3058 3056 3055 3054 3053 3051 3050 3049 3048 3047 3046 3045 3044 3044 3043 3042 3041 3041 3040 3039 3039 3038
3094 3096 3097 3098 3099 3099 3100 3101 3101 3102 3102 3102 3103 3103 3103 3103 3103 3102 3102 3102 3102 3101 3101 3100 3100 3099 3099 3098 3098 3097 3097 3096 3095 3094 3093 3093 3092 3091 3090 3089 3087 3086 3085 3084 3083 3082 3081 3080 3078 3077 3076 3074 3073 3071 3070 3069 3067 3066 3065 3063 3062 3061 3060 3058 3057 3056 3055 3053 3052 3051 3050 3049 3048 3047 3046 3045 3045 3044 3043 3042 3042 3041 3040 3040 3039
3094 3095 3096 3097 3098 3099 3099 3100 3100 3101 3101 3101 3102 3102 3102 3102 3102 3101 3101 3101 3101 3100 3100 3099 3099 3098 3098 3097 3096 3096 3095 3095 3094 3093 3092 3092 3091 3090 3089 3088 3087 3086 3085 3084 3083 3081 3080 3079 3078 3077 3076 3074 3073 3071 3070 3069 3067 3066 3065 3064 3062 3061 3060 3059 3058 3056 3055 3054 3053 3052 3051 3050 3049 3048 3047 3046 3045 3044 3043 3043 3042 3041 3041 3040 3040
3093 3094 3095 3096 3097 3097 3098 3099 3099 3100 3100 3100 3100 3100 3100 3100 3100 3100 3100 3100 3100 3099 3099 3098 3098 3097 3096 3096 3095 3094 3094 3093 3092 3092 3091 3090 3090 3089 3088 3087 3086 3085 3084 3083 3082 3081 3080 3078 3077 3076 3075 3074 3072 3071 3070 3068 3067 3066 3065 3063 3062 3061 3060 3059 3057 3056 3055 3054 3053 3052 3051 3050 3049 3048 3047 3046 3045 3044 3043 3043 3042 3041 3041 3040 3039
3092 3093 3094 3095 3096 3096 3097 3097 3098 3098 3099 3099 3099 3099 3099 3099 3099 3099 3099 3098 3098 3098 3097 3097 3096 3096 3095 3094 3094 3093 3092 3092 3091 3090 3089 3089 3088 3087 3086 3086 3085 3084 3083 3082 3081 3079 3078 3077 3076 3075 3074 3073 3072 3070 3069 3068 3066 3065 3064 3063 3062 3061 3059 3058 3057 3056 3055 3054 3053 3052 3051 3050 3049 3048 3047 3046 3045 3044 3043 3042 3041 3041 3040 3039 3039
3090 3092 3093 3094 3095 3095 3096 3096 3097 3097 3097 3097 3097 3098 3098 3098 3097 3097 3097 3097 3096 3096 3096 3095 3095 3094 3093 3093 3092 3092 3091 3090 3089 3089 3088 3087 3086 3085 3084 3084 3083 3082 3081 3080 3079 3078 3077 3076 3074 3073 3072 3071 3070 3069 3068 3067 3065 3064 3063 3062 3061 3059 3058 3057 3056 3055 3054 3053 3052 3051 3050 3049 3048 3047 3046 3045 3044 3043 3042 3041 3041 3040 3039 3038 3038
3089 3090 3091 3092 3093 3094 3094 3095 3095 3095 3096 3096 3096 3096 3096 3096 3096 3095 3095 3095 3094 3094 3094 3093 3093 3092 3092 3091 3090 3090 3089 3088 3088 3087 3086 3085 3084 3083 3082 3081 3080 3079 3079 3078 3077 3076 3075 3073 3072 3071 3070 3069 3069 3068 3066 3065 3064 3063 3061 3060 3059 3058 3057 3056 3055 3054 3052 3051 3050 3049 3048 3047 3046 3046 3045 3044 3043 3042 3041 3040 3039 3038 3038 3037 3036
3088 3089 3090 3091 3092 3092 3093 3093 3093 3094 3094 3094 3094 3094 3094 3094 3094 3093 3093 3093 3092 3092 3091 3091 3090 3090 3089 3089 3088 3088 3087 3086 3085 3084 3084 3083 3082 3081 3080 3079 3078 3077 3076 3075 3074 3073 3072 3071 3070 3069 3068 3067 3066 3065 3064 3063 3062 3061 3060 3059 3057 3056 3055 3054 3053 3052 3051 3050 3049 3048 3047 3046 3045 3044 3043 3042 3041 3040 3039 3038 3038 3037 3036 3035 3034
3086 3087 3088 3089 3090 3090 3091 3091 3092 3092 3092 3092 3092 3092 3092 3092 3092 3091 3091 3091 3090 3090 3089 3089 3088 3087 3087 3086 3085 3085 3084 3084 3083 3082 3081 3080 3079 3078 3077 3076 3075 3074 3073 3072 3071 3070 3069 3068 3067 3066 3065 3064 3063 3062 3062 3061 3060 3059 3058 3056 3055 3054 3053 3052 3051 3050 3049 3048 3047 3046 3045 3044 3043 3042 3041 3040 3039 3038 3037 3036 3035 3034 3034 3033 3032